Weather History for Guatemala Aeropuertola Aurora, Guatemala

Change the Weather History Date:

Saturday, August 24, 2013

  Actual Average Record
Temperature  
Mean Temperature 68 °F -  
Max Temperature 73 °F 74 °F - ()
Min Temperature 62 °F 60 °F - ()
Cooling Degree Days 2    
Growing Degree Days 18 (Base 50)    
Moisture  
Dew Point 61 °F    
Average Humidity 87    
Maximum Humidity 100    
Minimum Humidity 30    
Precipitation  
Precipitation 0.28 in - - ()
Sea Level Pressure  
Sea Level Pressure 30.19 in    
Wind  
Wind Speed 5 mph ()    
Max Wind Speed 14 mph    
Max Gust Speed -    
Visibility 5.7 miles    
Events Rain , Thunderstorm    
T = Trace of Precipitation, MM = Missing Value Source: Averaged Metar Reports

Daily Weather History Graph

Daily Weather History Graph

Search for Another Location

Airport:

Trip Planner

Search our weather history database for the weather conditions in past years. The results will help you decide how hot, cold, wet, or windy it might be!

Date:

Astronomy

Aug. 24, 2013 Rise Set
Actual Time 5:49 AM CST 6:19 PM CST
Civil Twilight 5:27 AM CST 6:40 PM CST
Nautical Twilight 5:01 AM CST 7:06 PM CST
Astronomical Twilight 4:36 AM CST 7:32 PM CST
Moon 9:05 PM CST (8/24) 9:01 AM CST (8/24)
Length of Visible Light 13h 13m
Length of Day
12h 29m
Waning Gibbous, 84% of the Moon is Illuminated
Aug 24
Waning Gibbous
Aug 28
Last Quarter
Sep 5
New
Sep 12
First Quarter
Sep 19
Full

Hourly Weather History & Observations

Time (CST) Temp. Dew Point Humidity Pressure Visibility Wind Dir Wind Speed Gust Speed Precip Events Conditions
12:00 AM 64.4 °F 64.4 °F 100% 30.21 in 6.2 mi North 9.2 mph - N/A   Mostly Cloudy
12:20 AM - - N/A% - 6.2 mi North 9.2 mph - N/A   Light Drizzle
1:00 AM 64.4 °F 62.6 °F 94% 30.18 in 6.2 mi NNE 6.9 mph - N/A   Light Drizzle
2:00 AM 64.4 °F 62.6 °F 94% 30.18 in 6.2 mi NNE 6.9 mph - N/A   Light Drizzle
3:00 AM 64.4 °F 62.6 °F 94% 30.18 in 6.2 mi North 3.5 mph - N/A   Light Drizzle
4:00 AM 64.4 °F 60.8 °F 88% 30.18 in 5.0 mi NNE 4.6 mph - N/A   Mostly Cloudy
5:00 AM 62.6 °F 60.8 °F 94% 30.18 in 6.2 mi North 5.8 mph - N/A   Scattered Clouds
6:00 AM 63 °F 61 °F 90% 29.86 in 25 mi North 5.8 mph - -   Partly Cloudy
6:00 AM 62.6 °F 60.8 °F 94% 30.18 in 6.2 mi North 5.8 mph - N/A   Scattered Clouds
7:00 AM 64.4 °F 60.8 °F 88% 30.21 in 6.2 mi Calm Calm - N/A   Scattered Clouds
8:00 AM 64.4 °F 62.6 °F 94% 30.24 in 6.2 mi Calm Calm - N/A   Mostly Cloudy
9:00 AM 66.2 °F 62.6 °F 88% 30.24 in 6.2 mi Calm Calm - N/A   Mostly Cloudy
10:00 AM 68.0 °F 60.8 °F 78% 30.24 in 6.2 mi NE 3.5 mph - N/A   Light Drizzle
10:19 AM - - N/A% - 6.2 mi NE 4.6 mph - N/A   Drizzle
10:36 AM - - N/A% - 6.2 mi NNE 3.5 mph - N/A   Mostly Cloudy
11:00 AM 69.8 °F 62.6 °F 78% 30.24 in 6.2 mi North 4.6 mph - N/A Rain Rain
11:15 AM - - N/A% - 6.2 mi North 4.6 mph - N/A   Mostly Cloudy
11:42 AM - - N/A% - 6.2 mi Calm Calm - N/A   Drizzle
12:00 PM 69.8 °F 62.6 °F 78% 30.24 in 6.2 mi WSW 4.6 mph - N/A   Light Drizzle
12:25 PM - - N/A% - 6.2 mi Calm Calm - N/A   Scattered Clouds
1:00 PM 71.6 °F 64.4 °F 78% 30.18 in 6.2 mi South 4.6 mph - N/A   Scattered Clouds
1:42 PM - - N/A% - 4.3 mi South 13.8 mph - N/A Rain Heavy Rain
2:00 PM 66.2 °F 64.4 °F 94% 3.01 in 5.0 mi South 13.8 mph - N/A Rain Light Rain
2:14 PM - - N/A% - 3.1 mi South 9.2 mph - N/A Rain Rain
2:26 PM - - N/A% - 3.7 mi South 11.5 mph - N/A Rain , Thunderstorm Thunderstorms and Rain
2:40 PM - - N/A% - 6.2 mi South 11.5 mph - N/A   Mostly Cloudy
3:00 PM 66.2 °F 33.8 °F 30% 30.18 in 6.2 mi South 11.5 mph - N/A   Mostly Cloudy
3:35 PM - - N/A% - 3.7 mi South 6.9 mph - N/A Rain Heavy Rain
4:00 PM 64.4 °F 62.6 °F 94% 30.18 in - North - - N/A   Light Drizzle
4:38 PM - - N/A% - - South 9.2 mph - N/A   Mostly Cloudy
5:00 PM 66.2 °F 62.6 °F 88% 30.18 in 6.2 mi South 9.2 mph - N/A   Mostly Cloudy
6:00 PM 66 °F 62 °F 85% 29.91 in 25 mi SSW 6.9 mph - -   Partly Cloudy
6:00 PM 66.2 °F 62.6 °F 88% 30.21 in 6.2 mi SSW 6.9 mph - N/A   Mostly Cloudy
7:00 PM 66.2 °F 62.6 °F 88% 30.24 in 6.2 mi South 4.6 mph - N/A   Mostly Cloudy
8:00 PM 64.4 °F 62.6 °F 94% 30.24 in 6.2 mi South 4.6 mph - N/A   Mostly Cloudy
9:00 PM 64.4 °F 62.6 °F 94% 30.27 in 6.2 mi SSW 4.6 mph - N/A   Scattered Clouds
10:00 PM 64.4 °F 62.6 °F 94% 30.27 in 5.0 mi Calm Calm - N/A   Scattered Clouds
11:00 PM 64.4 °F 62.6 °F 94% 30.27 in 5.0 mi Calm Calm - N/A   Scattered Clouds
11:30 PM - - N/A% - 1.9 mi Calm Calm - N/A   Drizzle